This demonstration page uses our WeatherBlox Daily Observations layout. Learn more.

Left ArrowRight Arrow

Hourly Observations for October 12, 2021

Temp ( °F °C ) Dew Point ( °F °C ) Humidity (%) Winds ( mph kmh ) Pressure ( in mb ) Visibility ( mi km ) Precip ( " mm )
12:53 am 00:53 Clear 45 7.2 39 3.9 80 80 NNE 5 7 29.88 1012 10 16 N/A
1:53 am 01:53 Clear 47 8.3 37 2.8 69 69 N N/A 29.89 1012 10 16 N/A
2:53 am 02:53 Clear 44 6.7 38 3.3 79 79 NE 5 7 29.91 1013 10 16 N/A
3:53 am 03:53 Clear 45 7.2 38 3.3 77 77 E 5 7 29.91 1013 10 16 N/A
4:53 am 04:53 Clear 45 7.2 38 3.3 77 77 E 5 7 29.91 1013 10 16 N/A
5:53 am 05:53 Clear 47 8.3 37 2.8 69 69 N N/A 29.91 1013 10 16 N/A
6:53 am 06:53 Clear 45 7.2 37 2.8 74 74 E 3 6 29.92 1013 9 14 N/A
7:53 am 07:53 Hazy 44 6.7 38 3.3 79 79 ENE 5 7 29.94 1014 4 6 N/A
8:01 am 08:01 Hazy 44 6.7 38 3.3 79 79 E 6 9 29.97 1015 2 3 N/A
8:17 am 08:17 Hazy 47 8.3 39 3.9 74 74 N N/A 29.96 1015 3 5 N/A
8:53 am 08:53 Sunny 56 13.3 44 6.7 65 65 ESE 8 13 29.94 1014 10 16 N/A
9:53 am 09:53 Sunny 62 16.7 45 7.2 54 54 SE 9 15 29.93 1013 10 16 N/A
10:53 am 10:53 Sunny 67 19.4 45 7.2 45 45 SE 10 17 29.91 1013 10 16 N/A
11:53 am 11:53 Sunny 72 22.2 42 5.6 34 34 S 14 22 29.88 1012 10 16 N/A
12:53 pm 12:53 Sunny 74 23.3 40 4.4 29 29 SSE 23 37 29.85 1011 10 16 0.00 0.00
1:53 pm 13:53 Mostly Cloudy 72 22.2 40 4.4 31 31 SSE 16 26 29.84 1010 10 16 N/A
2:53 pm 14:53 Mostly Sunny 72 22.2 41 5 33 33 SSE 13 20 29.79 1009 10 16 N/A
3:53 pm 15:53 Partly Cloudy 75 23.9 42 5.6 31 31 SE 20 31 29.75 1008 10 16 N/A
4:53 pm 16:53 Mostly Cloudy 73 22.8 42 5.6 33 33 SSE 17 28 29.74 1007 10 16 0.00 0.00
5:53 pm 17:53 Mostly Cloudy 72 22.2 43 6.1 35 35 SSE 17 28 29.73 1007 10 16 N/A
6:53 pm 18:53 Cloudy 67 19.4 46 7.8 47 47 SSE 16 26 29.75 1008 10 16 N/A
7:53 pm 19:53 Cloudy 62 16.7 51 10.6 67 67 SSE 12 19 29.75 1007 10 16 0.00 0.00
8:53 pm 20:53 Cloudy 62 16.7 48 8.9 60 60 SSE 14 22 29.69 1006 10 16 N/A
9:53 pm 21:53 Cloudy 62 16.7 47 8.3 58 58 SSE 13 20 29.67 1005 10 16 N/A
10:53 pm 22:53 Cloudy 62 16.7 47 8.3 58 58 SE 17 28 29.62 1003 10 16 N/A
11:37 pm 23:37 Cloudy 63 17.2 49 9.4 60 60 SE 18 30 29.57 1001 10 16 N/A
11:53 pm 23:53 Cloudy 63 17.2 50 10 63 63 SE 18 30 29.54 1000 10 16 N/A

Powered by AerisWeather